Weather History for VTSP - October, 2010

Change the Weather History Date:

Thursday, October 28, 2010

  Actual Average Record
Temperature  
Mean Temperature 81 °F -  
Max Temperature 88 °F 88 °F 95 °F (1997)
Min Temperature 74 °F 75 °F 72 °F (2014)
Cooling Degree Days 16    
Growing Degree Days 31 (Base 50)    
Moisture  
Dew Point 73 °F    
Average Humidity 80    
Maximum Humidity 94    
Minimum Humidity 55    
Precipitation  
Precipitation 0.35 in 0.26 in - ()
Sea Level Pressure  
Sea Level Pressure 29.82 in    
Wind  
Wind Speed 3 mph ()    
Max Wind Speed 9 mph    
Max Gust Speed -    
Visibility 5.0 miles    
Events Rain    
Averages and records for this station are not official NWS values.
T = Trace of Precipitation, MM = Missing Value Source: Averaged Metar Reports

Daily Weather History Graph

Daily Weather History Graph

Search for Another Location

Airport or City:

Trip Planner

Search our weather history database for the weather conditions in past years. The results will help you decide how hot, cold, wet, or windy it might be!

Date:

Astronomy

Oct. 28, 2010 Rise Set
Actual Time 6:14 AM ICT 6:06 PM ICT
Civil Twilight 5:53 AM ICT 6:27 PM ICT
Nautical Twilight 5:28 AM ICT 6:52 PM ICT
Astronomical Twilight 5:03 AM ICT 7:17 PM ICT
Moon 10:35 PM ICT (10/28) 10:34 AM ICT (10/28)
Length of Visible Light 12h 34m
Length of Day
11h 51m
Waning Gibbous, 74% of the Moon is Illuminated
Oct 28
Waning Gibbous
Oct 30
Last Quarter
Nov 6
New
Nov 13
First Quarter
Nov 22
Full

Hourly Weather History & Observations

Time (ICT) Temp. Heat Index Dew Point Humidity Pressure Visibility Wind Dir Wind Speed Gust Speed Precip Events Conditions
12:00 AM 77.0 °F - 73.4 °F 89% 29.83 in 4.3 mi Variable 2.3 mph - N/A   Mostly Cloudy
12:30 AM 75.2 °F - 73.4 °F 94% 29.83 in 4.3 mi East 3.5 mph - N/A   Mostly Cloudy
1:00 AM 77 °F - 76 °F 94% 29.80 in 5 mi Calm Calm - -   Mist
1:00 AM 75.2 °F - 73.4 °F 94% 29.83 in 4.3 mi Calm Calm - N/A   Mostly Cloudy
1:30 AM 75.2 °F - 73.4 °F 94% 29.80 in 4.3 mi Calm Calm - N/A   Mostly Cloudy
2:00 AM 75.2 °F - 73.4 °F 94% 29.80 in 4.3 mi Calm Calm - N/A   Mostly Cloudy
2:30 AM 75.2 °F - 73.4 °F 94% 29.80 in 4.3 mi Calm Calm - N/A   Mostly Cloudy
3:00 AM 75.2 °F - 73.4 °F 94% 29.80 in 4.3 mi Variable 1.2 mph - N/A   Mostly Cloudy
3:30 AM 75.2 °F - 73.4 °F 94% 29.80 in 4.3 mi Variable 1.2 mph - N/A   Mostly Cloudy
4:00 AM 75.2 °F - 73.4 °F 94% 29.80 in 4.3 mi Variable 2.3 mph - N/A   Mostly Cloudy
4:30 AM 75.2 °F - 73.4 °F 94% 29.80 in 4.3 mi Calm Calm - N/A   Mostly Cloudy
5:00 AM 75.2 °F - 73.4 °F 94% 29.80 in 4.3 mi Variable 2.3 mph - N/A   Mostly Cloudy
5:30 AM 75.2 °F - 73.4 °F 94% 29.80 in 4.3 mi Variable 2.3 mph - N/A   Mostly Cloudy
6:00 AM 75.2 °F - 73.4 °F 94% 29.83 in 4.3 mi ENE 5.8 mph - N/A   Mostly Cloudy
6:30 AM 75.2 °F - 73.4 °F 94% 29.83 in 5.6 mi East 4.6 mph - N/A   Mostly Cloudy
7:00 AM 77 °F - 75 °F 92% 29.79 in 6 mi Calm Calm - -   Scattered Clouds
7:00 AM 75.2 °F - 73.4 °F 94% 29.83 in 5.6 mi ESE 3.5 mph - N/A   Mostly Cloudy
7:30 AM 77.0 °F - 73.4 °F 89% 29.83 in 5.6 mi Variable 2.3 mph - N/A   Mostly Cloudy
8:00 AM 78.8 °F - 73.4 °F 83% 29.86 in 6.2 mi ESE 4.6 mph - N/A   Mostly Cloudy
8:30 AM 78.8 °F - 75.2 °F 89% 29.86 in 6.2 mi East 4.6 mph - N/A   Mostly Cloudy
9:00 AM 80.6 °F 86.2 °F 75.2 °F 84% 29.83 in 5.6 mi East 8.1 mph - N/A   Mostly Cloudy
9:30 AM 82.4 °F 89.5 °F 75.2 °F 79% 29.86 in 5.6 mi East 9.2 mph - N/A   Mostly Cloudy
10:00 AM 84.2 °F 92.3 °F 75.2 °F 74% 29.86 in 5.6 mi East 8.1 mph - N/A   Mostly Cloudy
10:30 AM 84.2 °F 92.3 °F 75.2 °F 74% 29.86 in 5.6 mi East 9.2 mph - N/A   Mostly Cloudy
11:00 AM 84.2 °F 90.9 °F 73.4 °F 70% 29.86 in 5.6 mi East 8.1 mph - N/A   Mostly Cloudy
11:30 AM 86.0 °F 93.4 °F 73.4 °F 66% 29.83 in 5.6 mi East 5.8 mph - N/A   Mostly Cloudy
12:00 PM 87.8 °F 95.6 °F 73.4 °F 62% 29.83 in 5.6 mi East 6.9 mph - N/A   Mostly Cloudy
12:30 PM 87.8 °F 95.6 °F 73.4 °F 62% 29.80 in 5.6 mi East 8.1 mph - N/A   Mostly Cloudy
1:00 PM 88 °F - 75 °F 57% 29.81 in 6 mi Calm Calm - -   Scattered Clouds
1:00 PM 87.8 °F 93.8 °F 71.6 °F 58% 29.80 in 5.6 mi East 6.9 mph - N/A   Mostly Cloudy
1:30 PM 87.8 °F 95.6 °F 73.4 °F 62% 29.77 in 5.6 mi East 5.8 mph - N/A   Mostly Cloudy
2:00 PM 87.8 °F 93.8 °F 71.6 °F 58% 29.77 in 5.6 mi East 5.8 mph - N/A   Mostly Cloudy
2:30 PM 87.8 °F 92.6 °F 69.8 °F 55% 29.77 in 5.6 mi Calm Calm - N/A   Mostly Cloudy
3:00 PM 87.8 °F 95.6 °F 73.4 °F 62% 29.77 in 5.6 mi Calm Calm - N/A   Mostly Cloudy
3:30 PM 87.8 °F 95.6 °F 73.4 °F 62% 29.77 in 5.6 mi Variable 4.6 mph - N/A   Mostly Cloudy
4:00 PM 86.0 °F 91.8 °F 71.6 °F 62% 29.77 in 5.6 mi WSW 6.9 mph - N/A   Mostly Cloudy
4:30 PM 86.0 °F 91.8 °F 71.6 °F 62% 29.77 in 5.6 mi West 9.2 mph - N/A   Mostly Cloudy
5:00 PM 84.2 °F 90.9 °F 73.4 °F 70% 29.77 in 5.6 mi West 6.9 mph - N/A   Mostly Cloudy
5:30 PM 84.2 °F 90.9 °F 73.4 °F 70% 29.77 in 5.6 mi West 9.2 mph - N/A   Mostly Cloudy
6:00 PM 84.2 °F 90.9 °F 73.4 °F 70% 29.77 in 5.6 mi WNW 8.1 mph - N/A   Mostly Cloudy
6:30 PM 82.4 °F 88.2 °F 73.4 °F 74% 29.80 in 5.6 mi West 5.8 mph - N/A   Mostly Cloudy
7:00 PM 84 °F - 75 °F 68% 29.76 in 6 mi Calm Calm - -   Scattered Clouds
7:00 PM 82.4 °F 88.2 °F 73.4 °F 74% 29.80 in 5.6 mi West 6.9 mph - N/A   Mostly Cloudy
7:30 PM 82.4 °F 88.2 °F 73.4 °F 74% 29.83 in 5.6 mi WNW 5.8 mph - N/A   Mostly Cloudy
8:00 PM 82.4 °F 88.2 °F 73.4 °F 74% 29.83 in 5.6 mi WNW 6.9 mph - N/A   Mostly Cloudy
8:30 PM 80.6 °F 85.4 °F 73.4 °F 79% 29.86 in 4.3 mi West 3.5 mph - N/A Rain Light Rain
9:30 PM 77.0 °F - 71.6 °F 83% 29.89 in 3.1 mi ENE 9.2 mph - N/A Rain Rain
10:00 PM 75.2 °F - 73.4 °F 94% 29.89 in 3.1 mi Variable 2.3 mph - N/A Rain Rain
10:30 PM 75.2 °F - 73.4 °F 94% 29.89 in 3.1 mi Variable 2.3 mph - N/A Rain Rain
11:00 PM 75.2 °F - 73.4 °F 94% 29.89 in 3.1 mi Calm Calm - N/A Rain Rain
11:30 PM 75.2 °F - 73.4 °F 94% 29.89 in 3.1 mi West 4.6 mph - N/A Rain Rain